Regional Weather Roundup
Issued by NWS

Home | Current Version | Previous Version | Graphics & Text | Print | Product List | Glossary On
Versions: 1 2 3 4 5 6 7 8 9 10 11 12 13 14 15 16 17 18 19 20 21 22 23 24 25 26 27
000
ASUS45 KTFX 212210
RWRMT
MONTANA REGIONAL WEATHER ROUNDUP
NATIONAL WEATHER SERVICE GREAT FALLS MT
400 PM MDT FRI JUL 21 2017

NOTE: "FAIR" INDICATES FEW OR NO CLOUDS BELOW 12000 FEET WITH NO
SIGNIFICANT WEATHER AND/OR OBSTRUCTIONS TO VISIBILITY.

MTZ001>007-043-212300-
WEST OF THE DIVIDE

CITY           SKY/WX    TMP DP  RH WIND       PRES   REMARKS
KALISPELL        N/A     82  35  18 SW14G21   30.03F
MISSOULA         N/A     85  24  11 W17G25    30.05S
BUTTE          SUNNY     80  18  10 W14G26    30.14F
MULLAN PASS      N/A     65  37  35 VRB5      30.25R
ANACONDA         N/A     81  23  12 W17G24    30.11S
DEER LODGE       N/A     81  30  16 NW14      30.11F
EUREKA           N/A     81  37  21 MISG      30.03F
HAMILTON         N/A     82  28  14 W13       30.07F
LIBBY            N/A     81  36  19 S8        30.05S
PLAINS           N/A     83  39  20 W10       30.05F
$$

MTZ008-052>055-212300-
SOUTHWEST MONTANA

CITY           SKY/WX    TMP DP  RH WIND       PRES   REMARKS
BOZEMAN        SUNNY     85  27  12 SW8       30.06F
DILLON         SUNNY     83  40  21 W6        30.10F
W YELLOWSTONE  SUNNY     79  16   9 W13G21    30.22F
ENNIS          SUNNY     84  25  11 W7G15     30.17F
THREE FORKS      N/A     89  31  12 SW15      30.03F
TWIN BRIDGES     N/A     87  34  15 CALM      30.07F
$$

MTZ009-010-012-014-046-048-049-054-212300-
EAST SLOPES AND CENTRAL MONTANA

CITY           SKY/WX    TMP DP  RH WIND       PRES   REMARKS
CUT BANK         N/A     81  27  14 W21G28    30.00S
GREAT FALLS    SUNNY     86  22   9 W20G30    29.98F
MALMSTROM AFB  SUNNY     85  26  12 W16G24    29.98F
HELENA         SUNNY     88  30  12 W20G25    30.02F
CHOTEAU          N/A     82  23  11 SW9G21    30.02S
$$

MTZ011-013-016-021-045-047-050-051-212300-
NORTH CENTRAL MONTANA

CITY           SKY/WX    TMP DP  RH WIND       PRES   REMARKS
HAVRE          SUNNY     86  25  11 W12G24    29.91F
LEWISTOWN      SUNNY     84  22  10 NW12G28   30.01S
N BAR RANCH      N/A     84  21  10 N12G25    30.04S
CHINOOK          N/A     84  28  13 W18G24    29.90S
$$

MTZ017>020-022>027-061-062-212300-
NORTHEAST MONTANA

CITY           SKY/WX    TMP DP  RH WIND       PRES   REMARKS
GLASGOW        SUNNY     88  32  13 W15G26    29.88S
JORDAN           N/A     90  25   9 NW20G28   29.90F
SIDNEY         SUNNY     93  31  11 W17G26    29.83R
WOLF POINT     SUNNY     93  31  11 W20G30    29.85S
MALTA          SUNNY     86  30  13 W14G28    29.89F
PLENTYWOOD       N/A     84  46  26 NW18G30   29.84R
POPLAR           N/A     88  37  16 NW12G22   29.84S
$$

MTZ028>42-056>058-212300-
SOUTHCENTRAL AND SOUTHEAST MONTANA

CITY           SKY/WX    TMP DP  RH WIND       PRES   REMARKS
BAKER          SUNNY     93  28  10 NW16G24   29.92F
BILLINGS       SUNNY     93  18   6 NW20G25   29.96F
LIVINGSTON     SUNNY     89  29  11 W18       30.04F
MILES CITY     CLOUDY    93  23   8 W15G24    29.90F HAZE
BIG TIMBER     SUNNY     88  27  11 W20G33    30.05F
FORSYTH          N/A     90  32  12 W6        29.92F
LAUREL           N/A     92  24   8 W7        29.97S
$$

REGIONAL REPORTS...DAKOTAS

CITY           SKY/WX    TMP DP  RH WIND       PRES   REMARKS
WILLISTON      SUNNY     95  42  16 W15G22    29.80F HX  91
MINOT          SUNNY     89  65  44 W7        29.79S HX  91
DICKINSON      MOSUNNY   90  58  33 SW3       29.83F
BEACH            N/A     91  27   9 W14G23    29.92S
CROSBY         PTSUNNY   88  57  35 NW8       29.79F
TIOGA            N/A     88  57  35 W12G21    29.83F
WATFORD CITY     N/A     93  54  26 W18G25    29.80S HX  91
BISMARCK       CLOUDY    89  67  47 N3        29.79F HX  92
GRAND FORKS    LGT RAIN  76  73  91 S8        29.69F
FARGO          PTSUNNY   89  70  53 NW15      29.76R HX  94
BUFFALO SD       N/A     92  46  20 NW21G30   29.84S
RAPID CITY     SUNNY     95  49  20 NW21G28   29.91S HX  92
$$

REGIONAL REPORTS...WYOMING/IDAHO/WASHINGTON

CITY           SKY/WX    TMP DP  RH WIND       PRES   REMARKS
GILLETTE       CLOUDY    90  34  13 VRB3      30.03S
SHERIDAN       SUNNY     88  34  14 VRB3      30.01F
BUFFALO WY     SUNNY     86  35  16 VRB6      30.09F
CODY           SUNNY     84  42  22 NE8       30.06F
YELLOWSTONE LA   N/A     73  24  16 VRB6      30.32F
IDAHO FALLS    SUNNY     87  30  13 E7        30.11F
BOISE            N/A     93  40  15 NW7G18    30.01F
SPOKANE        PTSUNNY   77  38  24 SW3       30.11S
$$

REGIONAL REPORTS...ALBERTA

CITY           SKY/WX    TMP DP  RH WIND       PRES   REMARKS
EDMONTON       CLOUDY    66  57  72 N6        29.88R
CALGARY        CLOUDY    64  43  45 NW12G17   30.01F
LETHBRIDGE     MOSUNNY   79  37  22 W14G28    29.96R
MEDICINE HAT   PTSUNNY   79  37  22 W12G22    29.91S
WATERTON GATE    N/A     75  36  23 SW15G28     N/A
MILK RIVER       N/A     79  39  24 NW20G28     N/A
ONEFOUR          N/A     81  34  18 W21G38      N/A
$$

REGIONAL REPORTS...SASKATCHEWAN

CITY           SKY/WX    TMP DP  RH WIND       PRES   REMARKS
SWIFT CURRENT  PTSUNNY   75  43  31 W16G24    29.89R
REGINA         MOSUNNY   82  52  34 W22G31    29.79R
SASKATOON      CLOUDY    66  59  77 N3        29.84R
CYPRESS HILLS    N/A     72  34  25 W12G22      N/A
VAL MARIE        N/A     82  30  15 NW16G24     N/A
ROCKGLEN         N/A     79  39  24 NW15G24     N/A
ASSINIBOIA       N/A     66  54  63 NW6         N/A
$$




USA.gov is the U.S. government's official web portal to all federal, state and local government web resources and services.